When you browse on this site, cookies collect data to enhance your experience and personalize the content and advertising you see.
Visit our Privacy Policy to learn more. By continuing to use the site, you agree to this use of cookies and data.
  • In Hungary
  • List of Countries
  • For 7 days
  • Water Temperature
  • Satellite Maps
  • Weather Map
  • News
  • Weather Widgets
  • user-avatar
    Login

    Hourly Weather Asadabad

    Today, 26 April, Friday

    Time Temperature Precipitation Wind Pressure Humidity
    00:00 +17°C° 0.3 mm 3 mps 658 mmHg 66%
    01:00 +17°C° 0.3 mm 3 mps 658 mmHg 64%
    02:00 +16°C° 0.3 mm 3 mps 658 mmHg 63%
    03:00 +16°C° 0.2 mm 3 mps 658 mmHg 62%
    04:00 +16°C° 0.2 mm 3 mps 658 mmHg 61%
    05:00 +16°C° 0.2 mm 3 mps 658 mmHg 60%
    06:00 +17°C° 0.1 mm 3 mps 658 mmHg 55%
    07:00 +18°C° 0.1 mm 2 mps 659 mmHg 51%
    08:00 +20°C° 0.1 mm 2 mps 659 mmHg 46%
    09:00 +21°C° 0.2 mm 2 mps 660 mmHg 44%
    10:00 +23°C° 0.2 mm 2 mps 660 mmHg 43%
    11:00 +24°C° 0.2 mm 2 mps 660 mmHg 41%
    12:00 +25°C° 0.3 mm 2 mps 660 mmHg 40%
    13:00 +25°C° 0.3 mm 2 mps 660 mmHg 39%
    14:00 +26°C° 0.3 mm 2 mps 660 mmHg 38%
    15:00 +26°C° 0.2 mm 2 mps 660 mmHg 38%
    16:00 +26°C° 0.2 mm 2 mps 660 mmHg 38%
    17:00 +25°C° 0.2 mm 2 mps 659 mmHg 37%
    18:00 +24°C° 0.6 mm 2 mps 659 mmHg 43%
    19:00 +21°C° 0.6 mm 2 mps 659 mmHg 50%
    20:00 +21°C° 0.6 mm 1 mps 659 mmHg 56%
    21:00 +19°C° 0.4 mm 2 mps 659 mmHg 56%
    22:00 +18°C° 0.4 mm 3 mps 659 mmHg 57%
    23:00 +18°C° 0.4 mm 3 mps 659 mmHg 58%

    Tomorrow, 27 April, Saturday

    Time Temperature Precipitation Wind Pressure Humidity
    00:00 +18°C° 0.2 mm 3 mps 659 mmHg 56%
    01:00 +17°C° 0.2 mm 3 mps 659 mmHg 55%
    02:00 +17°C° 0.2 mm 3 mps 659 mmHg 54%
    03:00 +17°C° 0.1 mm 3 mps 659 mmHg 53%
    04:00 +16°C° 0.1 mm 3 mps 659 mmHg 52%
    05:00 +15°C° 0.1 mm 4 mps 658 mmHg 50%
    06:00 +18°C° 0.1 mm 3 mps 659 mmHg 46%
    07:00 +19°C° 0.1 mm 3 mps 660 mmHg 41%
    08:00 +21°C° 0.1 mm 3 mps 660 mmHg 36%
    09:00 +23°C° 0 mm 2 mps 661 mmHg 34%
    10:00 +24°C° 0 mm 2 mps 661 mmHg 32%
    11:00 +26°C° 0 mm 2 mps 661 mmHg 30%
    12:00 +26°C° 0 mm 2 mps 661 mmHg 29%
    13:00 +27°C° 0 mm 2 mps 660 mmHg 28%
    14:00 +27°C° 0 mm 3 mps 660 mmHg 28%
    15:00 +27°C° 0 mm 3 mps 660 mmHg 28%
    16:00 +27°C° 0 mm 3 mps 660 mmHg 28%
    17:00 +27°C° 0 mm 3 mps 659 mmHg 28%
    18:00 +25°C° 0.3 mm 2 mps 659 mmHg 34%
    19:00 +23°C° 0.3 mm 2 mps 659 mmHg 40%
    20:00 +20°C° 0.3 mm 2 mps 658 mmHg 47%
    21:00 +19°C° 0.4 mm 2 mps 658 mmHg 48%
    22:00 +19°C° 0.4 mm 3 mps 659 mmHg 49%
    23:00 +18°C° 0.4 mm 3 mps 659 mmHg 50%

    Day after tomorrow, 28 April, Sunday

    Time Temperature Precipitation Wind Pressure Humidity
    00:00 +18°C° 0.3 mm 3 mps 658 mmHg 49%
    01:00 +17°C° 0.3 mm 3 mps 658 mmHg 48%
    02:00 +17°C° 0.3 mm 3 mps 658 mmHg 47%
    03:00 +17°C° 0.2 mm 3 mps 658 mmHg 46%
    04:00 +16°C° 0.2 mm 3 mps 658 mmHg 45%
    05:00 +16°C° 0.2 mm 3 mps 658 mmHg 43%
    06:00 +18°C° 0 mm 3 mps 658 mmHg 39%
    07:00 +20°C° 0 mm 3 mps 659 mmHg 36%
    08:00 +21°C° 0 mm 2 mps 660 mmHg 32%
    09:00 +23°C° 0 mm 2 mps 660 mmHg 30%
    10:00 +25°C° 0 mm 2 mps 660 mmHg 28%
    11:00 +26°C° 0 mm 1 mps 660 mmHg 27%
    12:00 +26°C° 0 mm 1 mps 660 mmHg 25%
    13:00 +27°C° 0 mm 2 mps 660 mmHg 24%
    14:00 +28°C° 0 mm 2 mps 660 mmHg 22%
    15:00 +28°C° 0 mm 2 mps 659 mmHg 22%
    16:00 +28°C° 0 mm 1 mps 659 mmHg 21%
    17:00 +28°C° 0 mm 1 mps 659 mmHg 20%
    18:00 +26°C° 0 mm 1 mps 658 mmHg 26%
    19:00 +24°C° 0 mm 1 mps 658 mmHg 32%
    20:00 +22°C° 0 mm 1 mps 658 mmHg 37%
    21:00 +20°C° 0 mm 2 mps 658 mmHg 36%
    22:00 +20°C° 0 mm 2 mps 658 mmHg 35%
    23:00 +20°C° 0 mm 3 mps 658 mmHg 34%

    29 April, Monday

    Time Temperature Precipitation Wind Pressure Humidity
    00:00 +19°C° 0 mm 3 mps 658 mmHg 34%
    01:00 +19°C° 0 mm 3 mps 658 mmHg 34%
    02:00 +18°C° 0 mm 3 mps 657 mmHg 34%
    03:00 +18°C° 0 mm 3 mps 657 mmHg 34%
    04:00 +18°C° 0 mm 3 mps 657 mmHg 33%
    05:00 +17°C° 0 mm 3 mps 657 mmHg 32%
    06:00 +19°C° 0 mm 3 mps 657 mmHg 30%
    07:00 +21°C° 0 mm 3 mps 658 mmHg 27%
    08:00 +24°C° 0 mm 3 mps 659 mmHg 25%
    09:00 +25°C° 0 mm 2 mps 659 mmHg 23%
    10:00 +26°C° 0 mm 2 mps 659 mmHg 22%
    11:00 +28°C° 0 mm 1 mps 659 mmHg 21%
    12:00 +28°C° 0 mm 2 mps 659 mmHg 21%
    13:00 +29°C° 0 mm 2 mps 658 mmHg 20%
    14:00 +29°C° 0 mm 3 mps 658 mmHg 20%
    15:00 +29°C° 0 mm 2 mps 658 mmHg 20%
    16:00 +28°C° 0 mm 2 mps 658 mmHg 21%
    17:00 +28°C° 0 mm 2 mps 658 mmHg 22%
    18:00 +27°C° 0 mm 2 mps 658 mmHg 25%
    19:00 +25°C° 0 mm 2 mps 658 mmHg 29%
    20:00 +24°C° 0 mm 1 mps 658 mmHg 32%
    21:00 +24°C° 0 mm 2 mps 658 mmHg 34%
    22:00 +22°C° 0 mm 3 mps 658 mmHg 36%
    23:00 +21°C° 0 mm 4 mps 658 mmHg 38%

    30 April, Tuesday

    Time Temperature Precipitation Wind Pressure Humidity
    00:00 +21°C° 0.1 mm 4 mps 657 mmHg 41%
    01:00 +20°C° 0.1 mm 4 mps 657 mmHg 44%
    02:00 +20°C° 0.1 mm 4 mps 656 mmHg 47%
    03:00 +19°C° 0 mm 4 mps 656 mmHg 48%
    04:00 +18°C° 0 mm 4 mps 656 mmHg 48%
    05:00 +18°C° 0 mm 4 mps 656 mmHg 49%
    06:00 +19°C° 0.1 mm 3 mps 656 mmHg 47%
    07:00 +20°C° 0.1 mm 3 mps 657 mmHg 45%
    08:00 +21°C° 0.1 mm 3 mps 658 mmHg 42%
    09:00 +21°C° 0.3 mm 2 mps 658 mmHg 43%
    10:00 +21°C° 0.3 mm 2 mps 658 mmHg 44%
    11:00 +21°C° 0.3 mm 1 mps 658 mmHg 45%
    12:00 +23°C° 0.1 mm 1 mps 658 mmHg 42%
    13:00 +24°C° 0.1 mm 2 mps 658 mmHg 39%
    14:00 +25°C° 0.1 mm 2 mps 658 mmHg 36%
    15:00 +25°C° 0.1 mm 2 mps 657 mmHg 35%
    16:00 +25°C° 0.1 mm 2 mps 657 mmHg 35%
    17:00 +25°C° 0.1 mm 2 mps 657 mmHg 34%
    18:00 +24°C° 0.2 mm 2 mps 657 mmHg 40%
    19:00 +21°C° 0.2 mm 2 mps 657 mmHg 46%
    20:00 +19°C° 0.2 mm 2 mps 657 mmHg 52%
    21:00 +19°C° 0.1 mm 2 mps 657 mmHg 51%
    22:00 +19°C° 0.1 mm 3 mps 657 mmHg 51%
    23:00 +18°C° 0.1 mm 3 mps 657 mmHg 50%

    1 May, Wednesday

    Time Temperature Precipitation Wind Pressure Humidity
    00:00 +18°C° 0 mm 3 mps 657 mmHg 47%
    01:00 +18°C° 0 mm 3 mps 656 mmHg 44%
    02:00 +17°C° 0 mm 3 mps 656 mmHg 40%
    03:00 +17°C° 0 mm 3 mps 655 mmHg 39%
    04:00 +16°C° 0 mm 3 mps 655 mmHg 38%
    05:00 +16°C° 0 mm 3 mps 655 mmHg 36%
    06:00 +18°C° 0 mm 3 mps 656 mmHg 33%
    07:00 +20°C° 0 mm 2 mps 656 mmHg 29%
    08:00 +21°C° 0 mm 2 mps 657 mmHg 25%
    09:00 +24°C° 0 mm 2 mps 657 mmHg 24%
    10:00 +25°C° 0 mm 1 mps 657 mmHg 23%
    11:00 +26°C° 0 mm 1 mps 657 mmHg 22%
    12:00 +26°C° 0 mm 1 mps 657 mmHg 21%
    13:00 +27°C° 0 mm 1 mps 657 mmHg 20%
    14:00 +28°C° 0 mm 1 mps 656 mmHg 19%
    15:00 +28°C° 0 mm 2 mps 656 mmHg 19%
    16:00 +28°C° 0 mm 2 mps 656 mmHg 18%
    17:00 +28°C° 0 mm 2 mps 656 mmHg 18%
    18:00 +26°C° 0 mm 2 mps 656 mmHg 22%
    19:00 +24°C° 0 mm 2 mps 656 mmHg 25%
    20:00 +21°C° 0 mm 2 mps 656 mmHg 29%
    21:00 +20°C° 0 mm 3 mps 656 mmHg 31%
    22:00 +19°C° 0 mm 3 mps 656 mmHg 33%
    23:00 +19°C° 0 mm 4 mps 656 mmHg 35%
    Show more